Home > Weather > Kolbotn > Past weeks

Flag for Norway Past Weather in Kolbotn, Norway — Yesterday and Last 2 Weeks

Now
55 °F

Passing clouds.


Feels Like: 50 °F
Forecast: 53 / 59 °F
Wind: 22 mph from Southeast

Location: Statfjord B

Current Time: Jun 29, 2016 at 2:06:45 AM

Latest Report: Jun 29, 2016 at 1:20 AM


Visibility: N/A

Pressure: 29.80 "Hg

Humidity: 88%

Dew Point: 52 °F

Location of KolbotnLocation

Past Weather in Kolbotn — Graph

°F

Kolbotn Temperature Yesterday

Maximum temperature yesterday: 55 °F (at 7:20 PM)
Minimum temperature yesterday: 50 °F (at 4:50 AM)
Average temperature yesterday: 53 °F

High & Low Weather Summary for the Past Weeks

 TemperatureHumidityPressure
High59 °F (Jun 23, 4:20 PM)100% (Jun 20, 11:50 AM)30.09 "Hg (Jun 20, 11:50 AM)
Low46 °F (Jun 18, 12:20 PM)51% (Jun 19, 7:20 PM)29.47 "Hg (Jun 20, 3:50 PM)
Average52 °F86%29.84 "Hg
* Reported Jun 14 12:20 AM — Jun 29 12:50 AM, Kolbotn, Weather by CustomWeather, © 2016

Note: Actual official high and low records may vary slightly from our data, if they occured in-between our weather recording intervals... More about our weather records

Advertising

Kolbotn Weather History for the Previous 24 Hours

Scroll right to see more
 ConditionsComfort  
Time TempWeatherWind HumidityBarometerVisibility
12:50 AM
Wed, Jun 29
54 °FPartly cloudy.20 mph94%29.80 "HgN/A
12:20 AM54 °FPassing clouds.20 mph94%29.80 "HgN/A
11:50 PM
Tue, Jun 28
54 °FCool.22 mph94%29.80 "HgN/A
11:20 PM54 °FCool.21 mph94%29.80 "HgN/A
10:50 PM54 °FCool.20 mph94%29.80 "HgN/A
10:20 PM54 °FCool.21 mph94%29.80 "HgN/A
9:50 PM55 °FCool.18 mph88%29.83 "HgN/A
9:20 PM55 °FCool.17 mph88%29.83 "HgN/A
8:50 PM55 °FPassing clouds.17 mph88%29.83 "HgN/A
8:20 PM55 °FPartly sunny.18 mph82%29.83 "HgN/A
7:50 PM55 °FPassing clouds.18 mph82%29.80 "HgN/A
7:20 PM55 °FCool.17 mph82%29.80 "HgN/A
6:50 PM54 °FCool.20 mph88%29.83 "HgN/A
6:20 PM54 °FCool.21 mph88%29.83 "HgN/A
5:50 PM54 °FCool.23 mph88%29.80 "HgN/A
5:20 PM54 °FCool.21 mph88%29.80 "HgN/A
4:50 PM54 °FPassing clouds.23 mph88%29.80 "HgN/A
4:20 PM54 °FPartly sunny.22 mph88%29.80 "HgN/A
3:50 PM54 °FPartly sunny.23 mph88%29.80 "HgN/A
3:20 PM54 °FPartly sunny.23 mph88%29.80 "HgN/A
2:50 PM54 °FBroken clouds.21 mph88%29.80 "HgN/A
2:20 PM52 °FSprinkles. Partly sunny.23 mph94%29.80 "HgN/A
1:50 PM54 °FPartly sunny.24 mph88%29.80 "HgN/A
1:20 PM54 °FPartly sunny.24 mph82%29.80 "HgN/A
12:50 PM54 °FScattered clouds.24 mph82%29.77 "HgN/A
12:20 PM54 °FScattered clouds.24 mph88%29.77 "HgN/A
11:50 AM54 °FBroken clouds.25 mph82%29.77 "HgN/A
11:20 AM54 °FBroken clouds.23 mph88%29.77 "HgN/A
10:50 AM54 °FPartly sunny.23 mph82%29.77 "HgN/A
10:20 AM54 °FPartly sunny.22 mph82%29.77 "HgN/A
9:50 AM54 °FPartly sunny.22 mph88%29.77 "HgN/A
9:20 AM54 °FPartly sunny.21 mph88%29.74 "HgN/A
8:50 AM52 °FBroken clouds.23 mph88%29.74 "HgN/A
8:20 AM52 °FPartly sunny.23 mph88%29.74 "HgN/A
7:50 AM52 °FBroken clouds.21 mph94%29.74 "HgN/A
7:20 AM52 °FPassing clouds.23 mph88%29.74 "HgN/A
6:50 AM52 °FScattered clouds.22 mph88%29.74 "HgN/A
6:20 AM52 °FBroken clouds.23 mph88%29.74 "HgN/A
5:50 AM52 °FPartly sunny.24 mph88%29.74 "HgN/A
5:20 AM52 °FPassing clouds.26 mph88%29.74 "HgN/A
4:50 AM50 °FSprinkles. Passing clouds.28 mph94%29.74 "HgN/A
4:20 AM52 °FPartly cloudy.25 mph88%29.71 "HgN/A
3:50 AM52 °FPartly cloudy.25 mph82%29.71 "HgN/A
3:20 AM52 °FPassing clouds.20 mph88%29.74 "HgN/A
2:50 AM52 °FPassing clouds.23 mph88%29.74 "HgN/A
2:20 AM52 °FPassing clouds.23 mph88%29.74 "HgN/A
Weather by CustomWeather, © 2016

See weather overviewHow to use our weather pages